Regional Weather Roundup
Issued by NWS

Home | Current Version | Previous Version | Text Only | Print | Product List | Glossary Off
Versions: 1 2 3 4 5 6 7 8 9 10 11 12 13 14 15 16 17 18 19 20 21 22 23 24 25 26 27 28 29 30 31 32 33 34 35 36 37 38 39 40 41 42 43 44 45 46 47 48 49 50

000
ASUS45 KBOU 262207
RWRCO

WEATHER ROUNDUP FOR COLORADO
NATIONAL WEATHER SERVICE DENVER/BOULDER CO
400 PM MDT MON JUN 26 2017

NOTE: "FAIR" INDICATES FEW OR NO CLOUDS BELOW 12000 FEET WITH NO
SIGNIFICANT WEATHER AND/OR OBSTRUCTIONS TO VISIBILITY.

COZ001>005-013-030-031-262300-
...NORTHWEST COLORADO...

CITY           SKY/WX    TMP DP  RH WIND       PRES   REMARKS
CRAIG          FAIR      90  12   5 W7        30.17F
HAYDEN         FAIR      84  27  12 NW6       30.21F
MEEKER         FAIR      89  19   7 CALM      30.16F
RABBIT EARS PA FAIR      68  27  21 W7        30.54F
STEAMBOAT SPGS FAIR      82  27  13 CALM      30.24F
WALDEN         FAIR      77  27  15 SW9G16    30.34F
$$

COZ006>008-011-262300-
...WEST CENTRAL VALLEYS...

CITY           SKY/WX    TMP DP  RH WIND       PRES   REMARKS
GRAND JUNCTION FAIR      97  17   5 NW12G22   30.02F
MONTROSE       FAIR      92  26   9 E7        30.11F
EAGLE          SUNNY     86  27  11 W13       30.20F
RIFLE          FAIR      91  20   7 NW8       30.09F
DELTA          FAIR      98  25   7 S13       30.05F
NUCLA          FAIR      90  21   8 CALM      30.16F
$$

COZ017>023-064>068-262300-
...SOUTHWEST COLORADO...

CITY           SKY/WX    TMP DP  RH WIND       PRES   REMARKS
DURANGO        FAIR      82  24  12 NE18G28   30.23F
CORTEZ         FAIR      91  26   9 S12G17    30.15F
PAGOSA SPRINGS FAIR      80  19  10 NW6       30.31F
TELLURIDE      FAIR      78  20  11 W15G23    30.42F
WOLF CREEK PAS CLOUDY    55  30  38 S16       30.67F
$$

COZ009-010-012-014-032>034-037-058>063-262300-
...CENTRAL COLORADO...

CITY           SKY/WX    TMP DP  RH WIND       PRES   REMARKS
ASPEN          FAIR      83  20   9 N7G16     30.28F
BUENA VISTA    FAIR      83  26  12 E7G17     30.26F
COPPER MTN     FAIR      64 -11   4 NW22G29   30.65S
BERTHOUD PASS  FAIR      55  41  58 NW16G26   30.69S
COTTONWOOD PAS FAIR      77  12   8 N3        30.44S
GUNNISON       LGT RAIN  77  28  16 S14       30.27F
KREMMLING      NOT AVBL
LEADVILLE      FAIR      71  10   9 W7G18     30.45F
MONARCH PASS   CLOUDY    52  21  30 NE10G30   30.73F
SALIDA         FAIR      74  29  18 SW20G25   30.33F
SUNLIGHT       FAIR      68  23  18 W3        30.58F
WILKERSON PASS PTSUNNY   61  27  27 E5        30.61S
$$

COZ069>075-262300-
...SAN LUIS VALLEY/SANGRE DE CRISTO MOUNTAINS...

CITY           SKY/WX    TMP DP  RH WIND       PRES   REMARKS
ALAMOSA        FAIR      80  37  21 SW20G29   30.29S
DEL NORTE      FAIR      77  38  24 S10G21    30.31S
LA VETA PASS   LGT RAIN  57  52  82 MISG      30.62S
SAGUACHE       FAIR      72  37  28 SE8       30.31S
$$

COZ035-036-038>040-262300-
...NORTHERN COLORADO FRONT RANGE...

CITY           SKY/WX    TMP DP  RH WIND       PRES   REMARKS
DENVER INTL AP FAIR      88  37  16 NE16      30.14F
DMNS CITY PARK   N/A     87  39  18 NE6G20    30.13F
AURORA         MOSUNNY   87  37  17 SE9       30.16F
FRONT RANGE AP FAIR      88  34  14 N7        30.16F
ERIE MUNI ARPT FAIR      86  40  20 SE5       30.13F
BOULDER MUN AP FAIR      84  46  26 E8        30.14F
CENTENNIAL     FAIR      86  34  15 E12       30.17F
BROOMFIELD     FAIR      84  36  17 CALM      30.17F
FORT COLLINS   FAIR      88  44  21 E6        30.14F
LONGMONT       FAIR      90  41  18 CALM      30.15F
$$

COZ041-046-047-076>085-087-088-262300-
...PIKES PEAK/PALMER DIVIDE AND SOUTHERN FOOTHILLS...

CITY           SKY/WX    TMP DP  RH WIND       PRES   REMARKS
COLO. SPRINGS  FAIR      83  40  21 SE5       30.20F
A. F. ACADEMY  FAIR      81  41  24 SE7       30.21F
SCHRIEVER AFB  FAIR      82  35  18 S3        30.21F
CHEYENNE MTN   FAIR      73  43  34 S8        30.21F
ELLICOTT       FAIR     N/A N/A N/A VRB3      30.18F
FALCON           N/A     84  31  14 E12       30.26F
FORT CARSON    FAIR      81  46  28 E3        30.17F
LIMON          FAIR      85  46  25 E14G31    30.15F
MONUMENT HILL  FAIR      79  36  21 SE13      30.28F
CANON CITY     SUNNY     86  50  28 MISG      30.13F
WALSENBURG     FAIR      79  52  38 SE5       30.20F
TRINIDAD       FAIR      84  43  23 NE8       30.17F
$$

COZ042>045-048>051-090-091-262300-
...NORTHEAST COLORADO...

CITY           SKY/WX    TMP DP  RH WIND       PRES   REMARKS
GREELEY ARPT   FAIR      89  43  20 S7        30.12F
AKRON          FAIR      84  51  31 E13G22    30.14F
BURLINGTON     FAIR      85  54  34 E7        30.11F
WRAY           PTSUNNY   72  57  60 N10G30    30.15R
YUMA           FAIR      81  54  39 E10       30.12F
STERLING       FAIR      86  48  26 E6        30.10F
HOLYOKE        NOT AVBL
FORT MORGAN    FAIR      88  41  19 E7        30.13F
$$

COZ086-089-092>099-262300-
...SOUTHEAST COLORADO...

CITY           SKY/WX    TMP DP  RH WIND       PRES   REMARKS
PUEBLO         FAIR      89  47  23 SE9       30.08F
LA JUNTA       FAIR      89  54  30 E10G18    30.08F
LAMAR          FAIR      89  54  30 SE6G20    30.05F
SPRINGFIELD      N/A     84  56  38 E12       30.11F
$$



USA.gov is the U.S. government's official web portal to all federal, state and local government web resources and services.